CW7220 Weather Reports


time (UTC)temp
C
wind
direction
speed
KPH
gust
KPH
rain 1hr
cm
rain 24hr
cm
rain mn
cm
humidity
%
barometer
mb
20260502150932 18 118 11.3 0.0 0.00 0.00 0.03 88 1018.9
20260502114930 19 108 9.7 0.0 0.00 0.00 0.03 82 1020.7
20260502113922 19 110 12.9 0.0 0.00 0.00 0.03 83 1020.7
20260502112934 19 85 11.3 0.0 0.00 0.00 0.03 83 1020.9
20260502111926 19 74 12.9 0.0 0.00 0.00 0.03 83 1021.0
20260502110922 19 91 11.3 0.0 0.00 0.00 0.03 83 1021.1
20260502105935 19 114 12.9 0.0 0.00 0.00 0.03 82 1021.1
20260502104925 19 103 14.5 0.0 0.00 0.00 0.03 83 1021.1
20260502103922 18 92 12.9 0.0 0.00 0.00 0.03 84 1021.3
20260502101929 18 98 11.3 0.0 0.00 0.00 0.03 84 1021.3
20260502090924 18 84 11.3 0.0 0.00 0.00 0.03 85 1021.4
20260502070928 17 76 6.4 0.0 0.00 0.00 0.03 89 1021.3
20260502064932 17 92 8.0 0.0 0.00 0.00 0.03 90 1021.4
20260502063929 17 84 9.7 0.0 0.00 0.00 0.03 90 1021.3
20260502062919 17 111 6.4 0.0 0.00 0.00 0.03 91 1021.4
20260502055920 17 109 11.3 0.0 0.00 0.00 0.03 91 1021.2
20260502054932 17 92 9.7 0.0 0.00 0.00 0.03 91 1021.3
20260502053924 17 74 9.7 0.0 0.00 0.00 0.03 91 1021.2
20260502052918 17 80 8.0 0.0 0.00 0.00 0.03 91 1021.2
20260502051929 17 74 8.0 0.0 0.00 0.00 0.03 90 1021.2
20260502050921 17 74 8.0 0.0 0.00 0.00 0.03 90 1021.2
20260502045934 17 63 9.7 0.0 0.00 0.00 0.00 90 1021.1
20260502044930 18 64 6.4 0.0 0.00 0.00 0.00 90 1021.1
20260502043923 17 96 6.4 0.0 0.00 0.00 0.00 90 1020.9
20260502042934 17 91 8.0 0.0 0.00 0.00 0.00 90 1020.9
20260502041929 17 72 9.7 0.0 0.00 0.00 0.00 90 1020.7
20260502034926 18 86 9.7 0.0 0.00 0.00 0.00 90 1020.8
20260502033921 17 81 9.7 0.0 0.00 0.00 0.00 90 1020.9
20260502032933 17 78 9.7 0.0 0.00 0.00 0.00 90 1021.0
20260502031926 17 74 6.4 0.0 0.00 0.00 0.00 90 1021.1
20260502030917 18 72 6.4 0.0 0.00 0.00 0.00 90 1021.1
20260502025924 17 84 8.0 0.0 0.00 0.00 0.00 90 1021.1
20260502024925 17 96 8.0 0.0 0.00 0.00 0.00 90 1021.0
20260502023936 17 88 9.7 0.0 0.00 0.00 0.00 90 1020.9
20260502022929 17 83 8.0 0.0 0.00 0.00 0.00 90 1021.0
20260502021924 18 79 8.0 0.0 0.00 0.00 0.00 91 1020.9
20260502015928 17 112 8.0 0.0 0.00 0.00 0.00 91 1021.1
20260502014920 17 96 9.7 0.0 0.00 0.00 0.00 91 1021.2
20260502012932 18 78 4.8 0.0 0.00 0.00 0.00 92 1021.3
20260502011923 18 82 4.8 0.0 0.00 0.00 0.00 92 1021.4
20260502010935 18 107 4.8 0.0 0.00 0.00 0.00 92 1021.5
20260502005932 18 79 8.0 0.0 0.00 0.00 0.00 92 1021.6
20260502004924 18 60 6.4 0.0 0.00 0.00 0.00 92 1021.5
20260502003936 18 89 8.0 0.0 0.00 0.00 0.00 92 1021.4
20260502002932 18 93 8.0 0.0 0.00 0.00 0.00 92 1021.6
20260502001925 18 100 6.4 0.0 0.00 0.00 0.00 92 1021.5
20260502000917 18 86 8.0 0.0 0.00 0.00 0.00 92 1021.6
20260501235927 18 82 6.4 0.0 0.00 0.00 0.15 92 1021.7
20260501234923 18 89 6.4 0.0 0.00 0.00 0.15 92 1021.9
20260501233935 18 53 4.8 0.0 0.00 0.00 0.15 92 1022.0
20260501232926 18 44 3.2 0.0 0.00 0.00 0.15 92 1022.1
20260501231923 18 59 6.4 0.0 0.00 0.00 0.15 92 1022.2
20260501230935 18 46 4.8 0.0 0.00 0.00 0.15 91 1022.1
20260501225928 18 72 4.8 0.0 0.00 0.00 0.15 91 1022.0
20260501224920 18 72 6.4 0.0 0.00 0.00 0.15 91 1022.1
20260501223934 18 78 4.8 0.0 0.00 0.00 0.15 91 1022.2
20260501221919 18 69 6.4 0.0 0.00 0.00 0.15 91 1022.3
20260501220931 18 67 8.0 0.0 0.00 0.00 0.15 91 1022.3
20260501215925 18 50 6.4 0.0 0.00 0.00 0.15 91 1022.4
20260501214916 18 44 4.8 0.0 0.00 0.00 0.15 91 1022.5
20260501213929 18 50 4.8 0.0 0.00 0.00 0.15 91 1022.4
20260501212924 18 48 6.4 0.0 0.00 0.00 0.15 90 1022.5
20260501204915 18 44 4.8 0.0 0.00 0.00 0.15 90 1022.5
20260501203933 18 41 4.8 0.0 0.00 0.00 0.15 90 1022.4
20260501200931 18 39 3.2 0.0 0.00 0.00 0.15 89 1022.1
20260501194919 18 40 3.2 0.0 0.00 0.00 0.15 89 1021.7
20260501193930 18 40 6.4 0.0 0.00 0.00 0.15 88 1021.4
20260501192922 18 37 6.4 0.0 0.00 0.00 0.15 88 1021.3
20260501191919 18 48 6.4 0.0 0.00 0.00 0.15 88 1021.2
20260501185925 18 26 6.4 0.0 0.00 0.00 0.15 87 1021.1
20260501183916 18 26 8.0 0.0 0.00 0.00 0.15 87 1020.7
20260501182929 18 13 9.7 0.0 0.00 0.00 0.15 86 1020.7
20260501181921 18 41 11.3 0.0 0.00 0.00 0.15 86 1020.6
20260501180918 18 39 12.9 0.0 0.00 0.00 0.15 85 1020.5
20260501175927 18 51 11.3 0.0 0.00 0.00 0.15 85 1020.3
20260501173934 18 19 9.7 0.0 0.00 0.00 0.15 86 1020.4
20260501172932 18 42 6.4 0.0 0.00 0.00 0.15 87 1020.4
20260501171924 18 42 8.0 0.0 0.00 0.00 0.15 87 1020.5
20260501170916 18 66 8.0 0.0 0.00 0.00 0.15 87 1020.4
20260501165928 18 72 9.7 0.0 0.00 0.00 0.15 87 1020.5
20260501164924 18 60 6.4 0.0 0.00 0.00 0.15 86 1020.5
20260501163917 18 71 8.0 0.0 0.00 0.00 0.15 86 1020.5
20260501162930 18 99 9.7 0.0 0.00 0.00 0.15 87 1020.4
20260501161927 18 108 6.4 0.0 0.00 0.00 0.15 86 1020.4
20260501160919 18 86 6.4 0.0 0.00 0.00 0.15 86 1020.3
20260501155929 18 67 8.0 0.0 0.00 0.00 0.15 86 1020.3
20260501153919 19 84 4.8 0.0 0.00 0.00 0.15 86 1020.3